Regional Weather Roundup
Issued by NWS

Home | Current Version | Previous Version | Graphics & Text | Print | Product List | Glossary On
Versions: 1 2 3 4 5 6 7 8 9 10 11 12 13 14 15 16 17 18 19 20 21 22 23 24 25 26 27 28 29 30 31 32 33 34 35 36 37 38 39 40 41 42 43 44 45 46 47 48 49 50
000
ASUS45 KBOU 051407
RWRCO

WEATHER ROUNDUP FOR COLORADO
NATIONAL WEATHER SERVICE DENVER/BOULDER CO
700 AM MST FRI FEB 05 2016

NOTE: "FAIR" INDICATES FEW OR NO CLOUDS BELOW 12000 FEET WITH NO
SIGNIFICANT WEATHER AND/OR OBSTRUCTIONS TO VISIBILITY.

COZ001>005-013-030-031-051500-
...NORTHWEST COLORADO...

CITY           SKY/WX    TMP DP  RH WIND       PRES   REMARKS
CRAIG          LGT SNOW  10   6  84 E3        30.42R FOG
HAYDEN         CLOUDY    12   9  85 SE3       30.39R
MEEKER         LGT SNOW  12   8  84 NE5       30.41R FOG     WCI   4
MOUNT WERNER   NOT AVBL
STEAMBOAT SPGS CLOUDY     8   5  87 CALM      30.38R
WALDEN         CLOUDY     0  -6  78 SE5       30.29S WCI -10
$$

COZ006>008-011-051500-
...WEST CENTRAL VALLEYS...

CITY           SKY/WX    TMP DP  RH WIND       PRES   REMARKS
GRAND JUNCTION CLOUDY    16  15  96 CALM      30.52R FOG
MONTROSE       CLOUDY     6   2  83 S6        30.51R WCI  -4
EAGLE          PTCLDY    -2  -6  84 CALM      30.46R
RIFLE          LGT SNOW  14  10  84 CALM      30.49R FOG
DELTA          CLOUDY    12   9  86 CALM      30.53R
NUCLA          FLURRIES  10   9  92 E8        30.50R WCI  -1
$$

COZ017>023-064>068-051500-
...SOUTHWEST COLORADO...

CITY           SKY/WX    TMP DP  RH WIND       PRES   REMARKS
DURANGO        CLOUDY    -8 -12  83 E3        30.35R
CORTEZ         CLOUDY     0  -4  83 NE8       30.42R WCI -14
PAGOSA SPRINGS CLOUDY    -4 -10  77 CALM      30.29R
TELLURIDE      CLOUDY    15   5  64 W5        30.29R WCI   7
WOLF CREEK PAS CLOUDY     0  -6  78 NE23G31   30.14R WCI -24
$$

COZ009-010-012-014-032>034-037-058>063-051500-
...CENTRAL COLORADO...

CITY           SKY/WX    TMP DP  RH WIND       PRES   REMARKS
ASPEN          LGT SNOW   8   5  87 CALM      30.34R FOG
BUENA VISTA    CLOUDY    15   2  57 N13G24    30.26R WCI   1
COPPER MTN     CLOUDY     3  -6  66 W15G22    30.14R WCI -15
BERTHOUD PASS  CLOUDY    -6 -15  65 NW21      30.11R WCI -30
COTTONWOOD PAS CLOUDY    16  -6  38 SW12G23   30.18R WCI   3
GUNNISON       CLOUDY   -17 -20  83 CALM      30.40R
KREMMLING      CLOUDY    -9 -15  77 CALM      30.37R
LEADVILLE      CLOUDY     0  -5  79 NW8       30.21R WCI -14
MONARCH PASS   CLOUDY     0  -6  78 MISG      30.22R
SALIDA         CLOUDY    13   1  60 W6        30.35R WCI   4
SUNLIGHT       LGT SNOW N/A N/A N/A NW3         N/A
WILKERSON PASS CLOUDY     3  -2  78 N10G17    30.14R WCI -12
$$

COZ069>075-051500-
...SAN LUIS VALLEY/SANGRE DE CRISTO MOUNTAINS...

CITY           SKY/WX    TMP DP  RH WIND       PRES   REMARKS
ALAMOSA        CLOUDY    -8 -14  74 W5        30.26R WCI -19
LA VETA PASS   CLOUDY     9   1  72 MISG      30.13R
SAGUACHE       CLOUDY    10   1  67 NW8G18    30.28R WCI  -1
$$

COZ035-036-038>040-051500-
...NORTHERN COLORADO FRONT RANGE...

CITY           SKY/WX    TMP DP  RH WIND       PRES   REMARKS
DENVER INTL AP CLOUDY    25  10  53 NW3       30.27R
DMNS CITY PARK   N/A     23  14  67 E7        30.28R WCI  15
AURORA         MOCLDY    24  10  54 W3        30.27R
FRONT RANGE AP MOCLDY    25   9  50 MISG      30.27
ERIE MUNI ARPT PTCLDY    15  13  89 S5        30.28R WCI   8
BOULDER MUN AP PTCLDY    21  10  63 NW6       30.28R WCI  14
CENTENNIAL     CLOUDY    23   8  52 W3        30.26R
BROOMFIELD     MOCLDY    27   7  43 N8        30.27R WCI  18
FORT COLLINS   CLOUDY    18   9  68 NW7       30.28R WCI   8
LONGMONT       CLOUDY    16   7  68 CALM      30.31R
$$

COZ041-046-047-076>085-087-088-051500-
...PIKES PEAK/PALMER DIVIDE AND SOUTHERN FOOTHILLS...

CITY           SKY/WX    TMP DP  RH WIND       PRES   REMARKS
COLO. SPRINGS  CLOUDY    23  12  62 N10       30.26R WCI  12
A. F. ACADEMY  CLOUDY    17   7  66 NE7       30.23R WCI   7
SCHRIEVER AFB  FAIR      20  10  67 N8        30.26R WCI  10
ELLICOTT       NOT AVBL
FALCON         CLOUDY    20  10  63 N9        30.23R WCI  10
FORT CARSON    CLOUDY    23  13  64 NW5       30.24R WCI  17
LIMON          CLOUDY    21  16  81 N12       30.25R WCI   9
MONUMENT HILL  CLOUDY    18   9  68 NW8       30.24R WCI   7
TRINIDAD       LGT SNOW  23  20  88 NE7       30.25R VSB 3/4 WCI  15
$$

COZ042>045-048>051-090-091-051500-
...NORTHEAST COLORADO...

CITY           SKY/WX    TMP DP  RH WIND       PRES   REMARKS
GREELEY ARPT   CLOUDY    12   9  85 CALM      30.29R
AKRON          CLOUDY    17  14  88 W13       30.25R WCI   4
BURLINGTON     NOT AVBL
WRAY           CLOUDY    24  20  88 W7        30.26R WCI  15
STERLING       CLOUDY    27  19  74 NW15      30.26R WCI  15
HOLYOKE        CLOUDY    30  19  64 NW13G20   30.25R WCI  20
FORT MORGAN    CLEAR     17  11  76 W5        30.29R WCI  10
$$

COZ086-089-092>099-051500-
...SOUTHEAST COLORADO...

CITY           SKY/WX    TMP DP  RH WIND       PRES   REMARKS
PUEBLO         CLOUDY    25  21  85 W3        30.29R
LA JUNTA       LGT SNOW  29  26  89 N10       30.29R VSB 3/4 WCI  20
LAMAR          CLOUDY    25  17  72 CALM      30.26R
SPRINGFIELD      N/A     20  11  68 N22       30.20R WCI   3
$$



USA.gov is the U.S. government's official web portal to all federal, state and local government web resources and services.